Погода в Николаевке

Украина / Николаевская область     47°44′59″N   32°50′46″E
темп.,
°C
ветер,
м/с
пор.,
м/с
влажн.,
%
обл.,
%
осадки,
мм/ч
давл.,
гПа
погр.,
м
30 ноября, вт
вт3023:00+10з7117898 0.4 994855
02:00+6з5117522 0.4 997548
05:00+4з611710 0.0 1000476
08:00+3з511725 0.0 1002527
11:00+5зсз5657100 0.0 1002719
14:00+5сз4555100 0.0 1001842
17:00+4сз4859100 0.0 999486
20:00+2сз51162100 0.0 999583
1 декабря, ср
ср123:00+1зсз5106967 0.0 1001417
02:00−1зюз49795 0.0 1003216
05:00−1ююз41273100 0.0 1002276
08:00+1зюз7136599 0.0 1002675
11:00+2зюз81482100 0.2 10021048
14:00+4з81263100 0.2 10011345
17:00+3зсз7117272 0.1 1004972
20:000зсз510835 0.1 1007331
2 декабря, чт
чт223:00−1зсз3489100 0.0 100978
02:00−2зюз358694 0.0 101186
05:00−1ююз368391 0.0 1011113
08:000ю410815 0.0 1011223
11:00+6ю7146814 0.0 1010674
14:00+10ююз814675 0.0 1008963
17:00+7ююз71478100 0.0 1009442
20:00+7ююз71592100 0.0 1009429
3 декабря, пт
пт323:00+7ю61495100 0.0 1009526
02:00+8ююз71484100 0.0 1008566
05:00+9ююз81589100 0.1 1007745
08:00+9ю7178142 0.1 1008705
11:00+12ююз8147249 0.0 10071123
14:00+12ююз81370100 0.0 1006874
17:00+10ююз71486100 0.0 1007477
20:00+9ююз6139391 0.0 1007403
4 декабря, сб
сб423:00+8юз4997100 0.0 1008259
02:00+5ссз4790100 0.0 1010187
05:00+4с5789100 0.0 1011388
08:00+3ссв5796100 0.0 1012376
11:00+4ссв4795100 0.0 1012377
14:00+4св5895100 0.0 1011388
17:00+4св6993100 1.6 1011373
20:00+4св61093100 5.3 1009371